Weather in Bolshoy Atlym

Russia / Khanty-Mansi Autonomous Okrug — Yugra     62°16′54″N   66°38′57″E
temp.,
°C
wind,
m/s
gust,
m/s
humid.,
%
clouds,
%
prec.,
mm/h
press.,
hPa
HPBL,
m
14 april, wed
wed1423:00+4wsw41388100 0.0 1022366
02:00+3wsw31287100 0.4 1019316
05:00+3w31198100 2.3 1019377
08:00+4wnw31199100 0.8 1020384
11:00+5w2710098 0.8 1021288
14:00+7wsw3795100 0.0 1021310
17:00+7sw2797100 0.1 1020209
20:00+5sw3997100 0.0 1018184
15 april, thu
thu1523:00+5sw3109478 0.1 1016188
02:00+4sw3109297 0.0 1014216
05:00+5sw4139195 0.0 1012319
08:00+8wsw51580100 0.0 1010559
11:00+11wsw71471100 0.0 10091036
14:00+7nw61288100 0.1 1010615
17:00+6wnw51067100 0.3 1012998
20:00+3nnw4978100 0.0 1013608
16 april, fri
fri1623:00+1wnw2886100 0.1 1015362
02:00−2nnw6117239 0.0 1017623
05:00−6n5107488 0.0 1021880
08:00−5n5757100 0.1 10251364
11:00−2n354384 0.1 10271594
14:000nw34373 0.0 10271464
17:000wsw32356 0.0 10261157
20:00−2s3452100 0.0 102485
17 april, sat
sat1723:00−1ssw61351100 0.0 1020690
02:000sw81547100 0.3 10151417
05:00−1wsw81595100 1.4 1011926
08:00−1nnw81390100 2.7 10111143
11:00−3nnw813572 2.9 10161293
14:00−4nnw81143100 0.0 10181975
17:00−4nnw6104414 0.0 10201815
20:00−7n510510 0.0 10211276
18 april, sun
sun1823:00−8n49563 0.0 10211007
02:00−9n410630 0.0 1022865
05:00−10nnw410705 0.0 1023755
08:00−8n59595 0.0 1024931
11:00−4n61043100 0.0 10251799
14:00−3n61039100 0.0 10262384
17:00−2n51142100 0.0 10272409
20:00−5nne485857 0.0 1029490